Wind_Speed
23 24 24 22 21 20 19 19 19 21 24 25 23 17 14 10 8 5 11 15 17 20 24 24 19 13 11 14 17 18 21 25 26 24 24 24 24 24 23 24 25 24 22 20 21 22 22 23 24 23 22 21 21 22 23 20 14 10 9 9 11 12 11 11 14 17 19 18 17 15 14 14 13 11 12 14 15 16 16 16 15 14 14 13 13 14
26 25 22 20 20 20 20 21 21 23 25 25 23 19 16 15 11 6 12 17 22 22 24 26 23 17 12 12 16 19 22 25 27 25 24 25 24 23 22 23 25 23 20 22 25 25 23 24 24 22 20 19 19 20 20 14 10 10 10 10 11 12 12 12 15 18 20 20 17 15 15 15 14 10 9 11 11 11 10 10 10 11 11 11 12 14
26 24 21 19 20 21 22 23 23 25 25 25 24 20 20 21 18 11 13 21 25 23 24 28 27 20 13 12 13 17 21 24 26 27 26 28 26 25 24 24 25 23 21 22 24 25 24 24 23 19 18 17 16 15 13 13 11 10 9 9 9 12 14 14 16 18 20 20 19 18 17 16 14 10 8 9 9 9 8 7 7 8 8 9 11 12
22 21 21 21 22 23 23 24 25 26 26 26 25 22 25 27 24 21 20 23 23 21 25 30 30 24 16 14 14 15 17 20 25 27 28 30 29 28 26 25 26 24 24 24 22 23 23 22 21 18 16 16 16 13 13 15 14 13 9 8 10 13 16 16 17 18 17 18 19 20 19 17 16 13 10 9 10 9 9 9 8 8 8 8 10 12
21 21 23 25 26 26 25 25 25 27 27 28 26 23 28 30 27 27 27 24 21 23 28 29 31 29 21 17 16 16 17 18 23 26 27 30 31 31 28 24 25 25 24 22 20 22 22 21 21 17 14 16 18 16 14 16 17 17 15 11 13 16 17 16 17 18 15 14 15 17 18 17 16 15 13 12 13 12 11 10 9 9 9 8 9 11
22 23 26 27 28 28 28 26 26 27 28 28 24 21 27 29 24 27 29 26 26 28 28 28 30 29 22 17 17 17 18 19 20 20 22 29 32 33 31 26 26 28 26 19 19 22 22 21 20 17 15 17 18 17 15 17 18 17 18 15 15 17 17 16 17 18 16 14 13 13 14 15 15 15 14 14 14 13 11 10 10 10 9 8 9 11
23 25 27 28 28 28 29 27 27 28 29 28 20 16 24 27 24 24 24 24 26 28 28 29 30 27 21 18 18 17 17 17 16 13 14 23 32 34 33 31 30 31 29 22 19 22 21 20 20 17 16 18 20 18 15 17 19 18 18 17 17 18 18 17 17 17 16 14 13 13 13 13 14 15 15 14 14 13 11 11 11 11 10 10 11 13
24 25 27 28 28 29 29 28 29 31 30 26 21 19 23 25 25 22 20 21 24 27 29 31 30 27 22 19 18 18 18 17 16 14 11 15 24 28 27 27 26 26 27 24 21 22 21 19 18 18 17 19 22 19 15 17 20 20 18 17 18 19 18 17 17 16 15 14 13 14 13 12 13 14 14 14 14 13 12 11 11 10 10 10 11 12
24 26 27 28 29 30 31 30 31 31 27 22 21 21 20 22 25 25 24 24 26 29 32 31 29 27 23 20 19 18 17 16 16 15 12 12 20 25 25 22 20 21 24 24 21 20 18 16 17 18 17 18 21 21 17 17 20 21 20 18 19 20 18 17 17 17 16 14 13 13 14 14 13 13 13 13 13 12 12 12 11 11 9 8 10 12
26 25 26 28 28 29 31 30 28 27 25 20 19 21 22 24 26 27 27 25 23 25 27 27 26 26 24 21 20 19 16 15 17 16 15 16 21 24 27 25 20 21 24 24 20 16 14 14 15 17 16 17 20 21 20 18 20 22 20 18 20 22 20 18 18 18 17 15 14 13 14 15 14 14 14 13 12 12 12 12 12 11 9 8 10 11
28 25 25 29 30 31 31 27 23 24 24 21 20 24 28 26 24 24 24 22 20 20 19 18 19 23 23 20 18 19 17 15 20 22 21 21 24 26 29 27 22 22 23 23 21 17 15 16 16 16 15 16 18 21 21 20 21 21 18 16 21 24 22 20 19 19 19 17 16 15 15 15 14 14 15 14 13 12 12 12 11 11 11 11 11 11
29 29 27 28 32 33 28 23 22 23 23 22 23 25 26 25 23 23 22 23 24 21 16 14 17 21 21 19 18 19 20 18 19 23 25 25 27 30 32 29 23 23 22 21 21 20 20 20 18 16 16 16 17 20 22 21 23 22 18 17 21 24 23 22 21 21 20 19 19 18 17 16 15 14 15 15 15 14 13 12 12 12 12 12 13 12
30 32 30 27 30 31 27 24 23 22 22 23 24 25 25 26 25 22 20 23 25 20 15 15 16 18 19 20 20 20 21 21 20 22 24 25 27 30 33 31 28 27 25 22 20 21 23 23 21 20 20 19 19 21 23 25 26 25 21 20 22 24 24 23 24 23 21 20 20 21 20 18 16 14 14 15 15 15 14 14 13 13 13 14 15 15
29 32 32 28 29 29 24 20 19 21 24 22 20 22 23 24 24 21 19 21 21 19 16 14 14 16 19 21 22 23 23 23 22 22 22 24 25 27 30 31 29 29 29 27 25 25 26 26 26 26 26 25 24 26 27 29 29 27 26 25 25 25 24 25 27 24 20 19 19 19 19 19 18 15 14 15 15 15 14 13 13 12 14 15 16 17
26 30 33 30 27 23 17 14 14 18 23 20 17 19 21 22 22 20 19 19 18 18 17 14 14 17 19 22 24 25 26 25 24 23 22 22 24 25 27 29 28 29 31 32 31 31 30 29 30 29 29 29 28 28 29 31 32 30 29 27 27 25 24 27 27 22 20 19 18 17 15 16 16 15 14 15 14 14 14 13 12 12 13 15 16 15
24 25 26 24 24 23 19 16 16 19 22 20 20 21 20 20 21 20 19 19 18 19 19 18 19 19 20 22 24 25 25 25 24 23 23 22 23 24 27 29 29 30 32 32 31 31 32 33 32 29 29 31 31 29 29 31 32 30 28 26 24 23 24 27 25 21 19 19 18 16 14 14 13 11 12 13 13 13 13 13 12 12 13 14 15 14
23 21 19 16 18 23 22 18 18 20 21 20 20 19 15 15 19 21 20 20 22 22 22 21 21 21 22 23 24 23 23 24 24 23 23 23 23 25 27 29 29 30 31 32 31 29 29 30 30 30 30 30 30 29 29 30 29 27 26 23 23 23 24 25 22 20 20 19 19 17 15 14 12 10 11 12 12 12 12 12 12 12 13 14 14 15
20 19 19 16 14 20 20 18 20 21 21 21 19 14 12 13 18 21 21 21 22 24 24 23 21 22 24 25 25 23 24 25 23 21 21 21 21 23 25 27 28 29 30 31 30 28 26 27 28 29 31 31 29 27 27 28 27 27 26 23 27 29 26 23 21 22 22 21 20 19 16 17 16 15 15 14 12 13 13 13 13 14 15 14 15 16
22 20 21 21 20 18 19 19 23 23 23 24 20 14 12 16 18 21 23 23 23 24 25 24 23 25 27 26 25 24 23 23 22 21 20 20 21 22 24 25 26 28 28 29 29 27 26 27 28 27 28 31 31 26 26 27 25 27 30 29 31 30 21 17 19 20 21 20 19 19 17 18 17 15 17 18 16 15 15 15 16 17 17 15 15 16
25 25 24 23 22 18 17 19 22 24 27 27 24 23 22 22 21 20 21 22 23 24 24 22 22 25 27 25 25 24 22 22 23 23 22 22 22 22 23 24 24 25 26 27 28 27 26 26 27 26 25 27 29 28 28 28 19 15 22 30 30 26 19 16 16 15 15 15 15 15 14 14 15 13 15 17 17 16 17 18 18 19 19 17 16 17
27 29 28 25 23 21 19 19 19 20 25 28 28 27 24 24 25 24 22 22 23 23 23 23 24 25 25 24 24 23 22 22 24 24 23 22 21 21 21 21 21 23 24 25 25 26 26 25 25 25 24 23 25 27 29 30 19 14 6 16 22 23 23 22 19 18 17 15 14 13 13 13 14 14 14 16 16 16 17 19 19 19 19 18 17 18
28 29 28 25 24 24 23 19 16 16 22 27 29 29 25 22 24 25 25 24 23 23 24 25 26 27 27 24 23 23 21 21 22 22 22 21 20 19 19 19 20 22 23 22 23 24 24 23 22 22 23 21 23 27 29 31 26 17 13 12 15 19 23 23 20 19 20 19 17 15 16 16 15 15 14 15 17 18 18 19 18 19 19 17 17 19
29 29 28 26 25 25 24 19 14 15 18 20 22 22 22 23 23 25 25 24 23 24 25 26 26 27 26 25 23 21 20 20 19 18 18 19 18 18 19 19 20 21 21 20 21 21 21 21 21 20 20 20 21 25 27 27 28 25 21 17 14 15 20 22 21 19 18 19 18 17 17 16 15 15 14 14 16 18 18 18 19 19 18 17 18 20
29 29 29 30 28 27 26 22 17 15 15 17 19 19 19 21 22 23 25 25 25 25 26 27 28 28 27 24 22 20 20 20 18 14 14 16 17 18 19 19 19 20 20 19 19 20 20 21 21 19 18 19 21 23 24 24 26 29 27 21 16 14 16 18 20 20 19 18 17 17 17 16 14 12 13 13 14 15 18 19 20 20 18 17 17 19
31 31 31 32 30 29 28 26 24 22 21 22 25 25 23 22 21 23 25 27 28 28 29 28 28 29 27 24 22 21 22 21 18 16 15 15 16 17 19 19 19 19 19 18 20 21 22 22 22 19 19 20 21 23 24 23 24 26 24 20 18 17 17 18 19 18 18 17 16 15 15 16 14 13 14 15 14 16 18 19 19 19 17 16 16 18
32 34 34 33 31 31 31 29 29 30 28 28 29 28 27 26 27 27 27 29 31 32 32 31 29 29 29 27 23 19 18 18 18 18 17 16 16 17 18 19 20 20 19 19 20 21 22 23 23 22 21 21 22 24 25 24 24 25 23 21 21 20 19 19 18 17 17 17 16 15 14 14 14 14 15 17 17 18 20 19 18 19 18 16 17 19
31 33 33 32 32 34 34 32 32 32 31 30 29 30 31 30 30 30 30 31 32 33 33 32 30 30 29 27 23 19 15 13 15 16 15 16 16 16 17 19 19 20 20 20 20 19 20 21 22 23 22 23 23 24 25 24 23 22 21 21 21 20 20 19 17 17 17 17 17 16 15 14 14 13 14 17 18 19 19 18 17 18 18 18 18 19
31 31 31 30 30 33 35 34 34 32 32 30 29 31 34 32 31 31 32 33 32 31 32 32 30 29 28 26 25 23 18 14 15 16 16 16 16 16 16 16 17 19 19 19 19 18 18 18 19 21 22 23 23 23 23 20 18 19 19 19 19 19 19 18 17 17 17 18 18 17 16 15 14 13 14 17 19 18 19 19 17 17 18 18 19 19
32 31 30 30 29 30 32 33 34 33 33 32 31 31 32 32 31 31 33 34 33 31 31 32 28 24 22 20 21 23 22 18 17 18 17 17 17 16 16 15 16 17 17 17 16 17 17 17 16 18 19 20 20 20 20 19 19 21 21 20 20 19 18 17 16 16 17 17 18 19 18 16 15 13 13 17 18 18 19 20 18 17 17 17 19 19
32 32 33 32 30 29 29 31 34 34 33 33 32 32 33 33 31 32 33 34 33 30 27 28 26 20 16 14 13 15 17 18 18 18 18 17 17 17 17 16 15 16 16 15 14 15 16 16 15 15 15 16 18 19 20 20 20 21 21 20 19 18 17 16 15 17 18 18 20 21 20 17 15 13 13 15 17 17 18 18 19 19 17 17 18 18
31 33 34 33 33 33 30 30 33 35 34 34 32 31 34 36 35 34 34 34 34 30 27 27 27 24 22 22 19 16 14 14 15 15 16 17 18 18 18 17 16 16 16 15 14 15 15 15 14 13 13 14 16 18 19 19 19 19 19 19 19 17 15 14 15 15 15 17 18 17 17 17 13 10 12 15 18 19 19 20 20 20 19 19 20 19
28 31 34 34 34 35 33 32 33 34 35 35 34 30 29 32 34 35 34 33 33 31 29 29 29 27 24 24 24 21 19 17 16 14 15 17 19 19 19 18 17 17 17 16 16 16 15 15 14 12 12 14 15 16 17 18 18 18 19 19 19 18 15 14 15 14 13 17 18 15 13 16 12 9 11 16 19 21 22 23 22 21 21 22 22 21
26 27 31 34 34 35 35 33 32 33 34 35 35 32 28 28 30 32 32 31 29 29 30 29 29 27 24 22 22 21 22 23 22 19 18 18 20 20 19 19 18 17 17 17 16 16 15 15 15 14 14 14 16 17 17 18 18 18 18 18 18 18 16 15 16 15 14 17 19 17 15 13 11 11 13 16 19 21 21 23 23 22 23 23 23 22
25 25 27 29 31 34 35 34 33 34 35 35 34 33 32 30 29 30 31 31 29 29 28 26 24 22 20 19 19 19 22 24 23 21 20 21 20 20 20 20 19 18 18 17 17 16 16 15 16 16 16 16 17 17 17 17 17 16 16 16 16 16 15 14 16 16 14 15 16 16 17 16 15 15 15 17 20 19 19 21 23 22 22 22 22 22
26 25 25 25 27 31 33 34 34 35 37 36 34 33 34 33 30 29 30 32 32 31 28 24 21 19 20 21 21 22 23 23 23 22 22 23 23 21 21 21 20 19 19 18 17 17 16 16 16 17 18 19 18 19 18 17 16 15 14 13 13 13 13 12 13 14 13 13 14 15 15 13 15 17 18 18 20 20 19 21 22 21 20 20 21 20
27 27 27 24 24 27 30 32 33 35 36 36 34 33 34 34 32 28 27 29 32 33 32 29 25 22 22 23 24 23 22 23 23 23 23 23 24 24 23 23 21 20 19 19 19 18 17 17 17 17 18 19 19 20 19 17 16 15 13 11 10 10 10 10 11 11 11 11 12 14 14 12 14 18 20 18 19 20 20 20 21 20 18 19 19 20
25 26 28 27 25 26 28 30 32 34 35 35 34 33 33 34 33 30 27 26 29 31 32 32 30 27 24 25 25 25 24 23 24 24 24 24 25 25 25 24 23 22 20 19 20 20 19 19 19 19 18 19 19 20 20 18 17 16 14 12 11 10 10 9 10 11 12 11 11 12 12 12 12 15 19 20 20 20 19 19 20 18 17 19 21 22
24 25 27 28 29 30 30 30 31 33 33 33 33 32 32 33 33 31 28 26 27 29 30 31 30 28 25 25 27 26 26 25 25 25 25 25 26 26 26 26 25 24 22 21 21 22 22 21 22 21 20 19 19 20 21 20 19 18 17 15 14 15 15 15 14 14 14 13 13 13 12 12 11 10 12 14 16 17 18 17 17 17 19 22 24 21
22 23 25 27 30 32 33 32 31 31 31 31 30 30 31 32 33 32 31 29 28 29 30 31 31 29 27 26 27 28 27 27 27 26 26 27 27 27 27 26 26 26 25 24 23 23 23 24 24 24 22 21 20 21 22 22 22 21 20 18 17 18 19 19 18 16 15 15 14 14 15 15 14 13 11 10 11 15 16 15 16 19 21 22 22 19
22 20 21 23 26 29 32 33 32 31 30 30 28 27 27 28 30 32 32 32 30 28 29 31 31 31 29 28 28 29 29 28 28 28 28 28 28 28 28 28 27 27 27 27 25 25 25 25 26 26 25 23 22 22 23 24 24 24 24 22 20 19 20 20 19 17 16 16 16 15 16 16 17 16 15 13 13 14 15 14 16 18 19 19 18 18
25 23 22 23 24 27 30 32 32 31 31 30 28 26 24 24 25 27 28 28 27 25 26 28 30 30 30 29 29 30 31 30 29 29 29 29 29 29 29 29 29 29 29 28 27 27 27 26 27 27 26 25 24 24 24 25 26 27 26 26 24 22 21 21 21 20 18 18 18 17 17 17 17 17 16 16 17 18 19 19 20 20 20 20 19 18
27 27 25 23 22 24 27 31 32 30 29 29 28 26 25 23 22 22 23 23 23 21 22 24 26 26 27 27 28 30 31 31 30 29 28 29 29 29 29 29 29 29 29 30 29 28 28 28 28 28 28 28 27 26 25 26 26 26 26 26 26 25 23 22 22 22 21 20 20 20 20 20 19 19 18 17 18 20 21 21 22 22 22 22 21 21
27 26 26 24 22 22 24 28 31 30 28 27 26 26 26 25 23 22 22 22 21 19 19 21 21 21 21 21 24 27 30 31 30 29 29 28 28 28 29 29 29 28 29 30 30 30 31 31 31 30 30 30 30 30 29 27 26 26 26 26 26 26 25 23 23 23 23 23 22 22 22 22 21 21 20 19 19 20 21 22 22 22 22 22 23 23
23 21 22 22 22 22 23 24 26 27 25 24 24 25 25 24 23 22 22 21 20 19 18 18 19 18 17 17 20 23 27 29 30 29 28 28 28 28 28 28 29 29 29 30 29 30 31 33 33 32 32 32 32 32 31 30 29 28 28 27 28 27 27 26 25 23 23 22 22 22 22 22 23 22 21 21 21 21 22 23 24 24 24 24 24 24
20 15 14 17 19 19 20 21 22 24 24 22 21 21 20 20 19 19 18 18 19 19 18 17 17 17 17 15 16 18 22 25 27 28 28 28 29 29 29 30 30 31 32 32 31 30 31 32 32 31 32 33 33 33 33 34 34 33 33 32 32 31 29 28 27 25 23 22 22 21 21 22 23 23 22 22 23 23 24 25 25 26 26 27 27 27
20 15 11 14 16 16 17 18 19 22 23 21 17 15 15 16 16 16 17 16 16 16 16 16 16 16 16 15 14 14 16 18 21 24 25 27 28 29 29 30 30 31 33 34 35 35 34 34 34 33 33 34 33 32 32 32 30 30 31 32 33 33 33 31 30 29 27 26 25 25 25 26 26 25 24 24 25 26 27 27 28 29 30 30 30 30
19 17 14 14 15 16 17 17 18 20 22 21 16 13 14 16 16 16 16 16 16 16 16 16 16 16 17 16 15 15 15 16 18 20 21 23 23 24 25 26 27 27 29 31 34 36 36 36 35 34 32 31 30 30 31 32 32 31 31 32 33 34 34 34 34 33 31 30 29 28 28 29 29 29 29 28 28 28 29 29 30 31 32 33 33 33
15 15 14 14 15 16 16 17 18 19 21 21 19 15 15 17 17 15 16 17 17 17 17 17 16 16 16 16 16 15 15 16 18 19 20 21 21 22 23 23 23 23 24 26 28 30 31 32 31 31 29 29 29 30 32 35 38 38 38 37 36 36 35 34 33 33 33 31 30 29 29 29 29 30 30 30 30 30 30 31 31 32 33 34 34 35
12 13 13 13 14 15 15 16 17 18 19 20 19 17 15 17 18 17 16 16 16 17 17 17 16 15 15 15 15 15 15 15 16 17 19 20 22 23 23 23 23 22 22 23 24 25 26 27 28 28 29 29 29 29 31 32 34 35 35 35 35 36 35 33 31 31 30 30 29 29 29 29 29 30 31 31 31 31 31 31 32 32 32 33 33 34
11 12 12 13 14 15 14 15 16 17 18 19 19 17 16 17 19 18 16 15 14 15 16 16 16 16 16 16 15 16 16 16 16 17 19 20 22 22 23 23 23 23 23 22 22 23 23 24 25 26 27 27 26 26 26 26 27 28 29 30 30 31 33 33 33 31 30 30 30 31 32 32 32 33 34 34 34 32 31 30 29 29 29 30 31 32
10 10 11 12 13 14 15 16 16 16 16 16 17 17 17 16 17 16 15 14 14 14 14 15 16 16 17 17 17 17 18 18 18 19 20 21 22 23 24 24 24 25 24 24 24 23 23 24 25 26 26 27 27 26 26 25 26 26 27 28 29 31 33 34 34 33 33 33 33 33 34 34 34 34 35 35 35 34 32 31 30 30 30 31 31 32
Wind_Direction
221 224 226 227 225 221 220 218 209 204 208 209 205 188 165 155 146 186 245 255 265 278 285 281 279 274 255 254 258 259 264 268 275 283 284 285 283 282 286 285 284 283 277 266 262 266 270 274 278 281 287 290 292 293 288 284 282 277 253 228 232 239 235 227 228 233 237 243 250 255 262 268 269 266 253 245 246 248 244 240 239 239 236 231 225 220
219 220 220 222 220 215 214 213 204 203 212 219 216 206 187 160 149 209 245 252 259 265 273 278 277 274 269 268 263 258 264 273 282 285 283 282 281 278 280 283 284 285 279 265 262 265 266 270 278 285 292 294 298 299 288 267 257 265 247 225 230 233 231 230 229 232 235 241 251 255 257 265 274 283 269 247 245 246 244 241 239 237 233 229 224 220
219 218 217 217 219 217 216 213 206 204 213 223 226 217 195 172 163 187 220 235 246 251 261 268 269 272 276 272 264 260 264 270 278 285 284 281 281 278 276 278 281 284 282 268 258 260 263 268 275 282 286 286 295 299 273 239 241 260 240 222 234 233 230 231 226 229 234 242 249 246 246 254 258 265 264 248 245 247 246 243 234 229 226 224 223 222
216 214 215 216 218 219 219 217 210 210 214 221 229 216 193 183 175 177 203 229 244 255 260 265 273 278 274 270 271 266 266 263 263 274 282 281 279 277 274 273 273 276 278 271 259 256 261 266 270 275 278 276 282 282 257 243 259 284 277 247 242 234 231 230 223 226 235 245 249 245 246 251 248 247 252 248 246 248 246 243 237 230 222 220 228 228
212 209 212 213 215 216 216 217 214 217 220 218 223 215 197 195 191 187 198 214 230 248 257 263 274 281 280 279 281 273 270 264 252 257 273 280 280 276 271 267 267 270 272 270 263 258 259 264 268 270 272 272 273 271 258 253 269 290 296 273 245 234 231 231 226 228 242 256 256 250 249 255 252 248 251 249 247 249 250 249 241 233 230 227 223 217
208 208 211 213 213 214 214 213 213 219 226 224 222 217 210 212 213 202 197 205 220 234 247 256 264 274 280 283 285 279 274 268 254 250 261 266 269 274 276 271 269 271 271 266 258 256 255 260 269 270 269 270 269 267 258 254 263 280 290 278 251 240 236 234 229 230 244 262 268 261 257 261 263 263 263 257 253 252 251 249 238 230 233 225 213 218
207 211 212 214 214 216 216 214 214 218 224 229 226 213 214 220 226 221 215 227 240 241 246 254 260 269 279 284 284 277 271 267 260 261 265 256 256 268 278 277 274 273 272 269 256 253 254 257 266 271 269 270 270 268 261 259 262 267 277 272 250 243 241 236 233 235 245 260 269 269 265 265 268 271 269 261 259 258 253 249 238 225 225 229 233 240
207 214 217 218 217 218 219 217 218 221 223 225 222 212 215 221 225 227 230 237 245 248 249 252 262 275 284 288 284 275 272 268 262 268 283 277 272 276 280 276 275 276 275 274 262 254 256 259 268 273 274 274 275 275 270 264 260 259 269 267 248 243 241 234 234 238 245 255 265 268 264 260 263 269 269 262 258 258 255 251 242 230 229 239 242 232
209 218 223 226 227 226 225 223 225 228 225 218 216 217 220 221 217 219 226 229 234 244 247 246 257 273 279 281 277 271 270 260 253 261 262 268 278 280 277 270 270 274 276 278 272 264 263 265 270 272 272 275 277 278 274 264 258 261 269 263 245 241 241 236 234 236 241 248 258 265 264 260 261 266 269 264 257 254 254 251 246 241 237 232 224 215
211 215 224 229 230 230 231 232 231 230 223 211 208 213 217 217 212 215 228 236 240 247 248 246 253 263 268 272 269 266 264 241 231 240 238 242 257 263 267 270 275 280 281 284 287 283 273 267 267 268 270 274 277 276 272 263 258 263 269 259 244 241 241 238 234 233 237 242 249 257 260 260 261 263 264 261 258 257 255 252 248 244 236 226 220 220
215 209 218 227 227 229 234 234 228 222 216 205 204 213 218 222 219 220 231 242 251 256 259 259 257 257 260 265 262 258 259 244 230 232 231 236 245 253 262 272 284 288 283 283 286 283 273 268 269 269 270 271 271 269 267 260 256 261 264 253 243 239 238 238 234 231 232 236 242 248 252 256 260 262 260 257 256 257 257 255 249 242 236 231 226 225
219 211 211 222 227 229 231 227 219 216 214 205 206 218 224 227 229 229 232 241 251 260 267 266 261 258 259 259 254 246 247 247 241 240 240 239 240 248 259 270 281 283 279 279 278 271 265 264 261 259 257 256 257 258 258 251 248 252 252 242 237 235 236 237 234 231 230 231 235 240 244 248 253 256 256 253 252 253 255 254 248 242 235 229 228 230
218 220 215 216 227 231 226 222 219 218 220 212 209 219 225 229 237 238 233 239 252 261 264 257 251 252 253 254 257 254 250 252 250 249 252 250 247 250 257 265 271 275 276 277 268 255 251 252 248 244 238 231 230 238 242 241 241 243 239 231 229 230 235 239 236 233 232 233 235 237 238 240 243 246 248 248 248 248 250 250 248 243 236 231 232 237
215 224 225 216 224 231 227 229 230 223 225 224 217 223 230 235 245 249 244 244 253 257 255 249 241 238 240 245 254 258 258 258 258 259 261 260 259 258 261 265 268 271 274 275 269 259 253 253 251 246 237 226 221 224 229 230 232 235 232 225 222 225 233 238 236 236 240 244 244 242 240 238 236 236 239 241 243 245 245 247 247 243 239 237 238 243
212 220 228 225 228 236 230 230 234 224 225 227 225 229 234 238 242 249 253 252 254 257 254 247 240 238 236 239 245 249 253 258 261 264 266 264 263 264 267 272 273 272 273 274 273 269 266 268 268 262 250 239 234 232 231 228 225 227 227 223 219 223 233 239 239 243 249 250 252 254 250 242 233 228 232 234 238 244 246 248 249 246 243 240 241 246
218 218 226 230 235 239 228 215 215 219 221 222 223 226 232 240 241 239 242 245 246 250 251 246 241 241 241 243 246 247 250 257 262 265 267 267 267 267 270 274 274 273 271 270 270 269 270 276 280 274 260 248 242 241 241 235 229 228 229 226 222 225 236 242 246 253 254 254 263 266 255 244 236 232 235 236 237 244 250 254 255 251 247 242 241 246
224 219 220 227 233 235 224 201 201 213 219 225 228 228 233 243 242 236 232 236 242 245 248 248 246 246 246 246 250 252 254 258 262 264 264 266 269 271 273 273 271 268 266 264 263 264 268 274 278 275 268 258 246 240 241 239 234 235 238 236 231 230 235 242 251 258 257 260 268 267 255 253 263 267 260 252 245 248 253 256 256 252 246 242 242 245
221 219 217 214 219 236 230 206 205 211 213 224 230 233 252 252 239 234 225 224 236 243 248 250 249 247 246 246 249 253 258 261 261 262 264 265 267 270 273 273 270 267 265 264 263 266 270 271 272 272 271 266 254 242 238 236 233 234 239 242 238 230 224 231 245 253 254 255 258 260 262 269 281 281 269 261 253 250 252 252 252 250 246 245 245 246
215 214 215 210 204 224 237 224 217 210 204 214 213 204 230 246 241 238 231 225 231 240 246 249 250 250 249 249 251 251 255 258 257 259 264 266 268 273 276 274 271 268 266 267 267 270 271 270 273 272 267 264 258 247 234 229 234 235 228 231 240 237 224 222 237 247 249 250 252 258 266 271 276 275 264 259 251 244 245 246 248 249 246 246 247 248
216 212 212 214 203 206 228 229 221 210 202 207 207 198 201 217 230 237 236 236 237 241 248 250 251 253 254 255 256 255 257 259 261 264 266 267 269 276 278 273 267 264 264 267 270 272 271 271 275 274 268 261 255 250 237 231 254 264 224 219 231 238 240 240 240 243 245 248 252 255 262 264 265 266 259 253 247 242 241 242 245 244 238 241 249 251
220 220 216 216 208 202 215 226 225 214 204 204 212 214 208 207 219 230 233 236 239 241 246 248 248 250 254 259 261 262 263 264 267 269 267 267 269 272 274 269 263 260 262 265 268 272 271 268 271 272 271 263 249 249 243 235 261 321 287 230 231 234 244 252 253 251 251 259 262 255 260 266 267 265 254 244 246 251 249 245 243 237 233 241 249 248
219 224 221 219 216 208 208 220 229 218 206 206 213 223 226 219 219 226 230 235 239 240 242 245 247 249 252 258 263 269 268 267 275 274 266 264 266 267 268 265 262 260 262 267 270 272 268 264 268 271 272 267 252 251 251 246 259 300 323 290 256 241 245 253 262 262 257 261 264 260 267 272 272 271 260 245 245 249 250 246 239 233 236 244 244 243
217 222 219 217 217 211 204 206 222 223 213 209 212 224 234 233 227 225 227 233 238 242 245 246 247 250 253 256 260 266 267 269 279 277 261 256 259 262 263 260 259 260 262 268 269 268 265 264 271 274 271 270 264 262 266 265 268 283 300 306 290 263 254 256 268 277 272 267 266 266 271 271 270 270 264 253 246 244 243 241 237 238 242 243 241 244
216 222 220 215 212 211 206 197 199 218 223 210 207 221 235 238 239 235 232 236 240 243 247 250 251 253 256 256 256 263 268 270 274 269 255 253 254 257 257 252 252 255 260 266 266 262 264 267 272 276 276 275 277 279 283 282 280 283 290 297 296 286 275 270 275 281 282 278 275 272 268 264 263 263 255 249 243 237 236 237 240 244 246 243 244 247
212 219 224 220 210 209 210 199 191 204 218 209 200 210 223 228 234 237 234 236 240 244 246 247 251 254 255 254 257 265 267 264 263 262 258 255 252 253 253 248 246 250 254 262 264 264 266 269 271 275 279 281 284 289 292 291 288 289 290 291 293 294 289 283 282 285 287 285 283 280 270 260 257 258 254 247 236 230 234 241 248 250 246 242 243 244
214 218 224 222 211 208 209 204 199 201 208 208 201 204 214 219 221 225 229 231 235 240 243 244 245 249 253 256 261 268 265 257 258 262 259 256 255 254 253 251 249 251 254 257 262 265 266 268 269 271 275 281 285 288 292 293 295 297 295 294 298 299 290 285 287 290 291 289 286 284 276 263 256 258 255 244 234 231 234 242 248 248 243 239 238 240
217 222 227 224 216 213 211 210 212 210 207 209 209 207 211 218 221 221 225 228 231 236 241 244 245 248 253 257 261 268 267 255 255 258 254 256 261 259 256 254 254 256 258 258 260 264 267 268 268 270 272 277 283 288 290 294 299 302 302 300 301 299 291 288 293 296 294 293 291 288 282 268 255 255 250 237 233 234 233 235 238 239 239 237 236 239
218 224 229 227 221 219 217 215 217 218 213 215 219 214 212 217 222 224 226 227 230 236 241 245 248 250 254 259 261 262 258 251 253 257 254 253 257 260 260 258 257 258 261 261 260 261 265 268 269 270 271 273 279 285 287 290 296 302 305 306 306 305 296 292 297 296 293 292 290 287 280 266 256 256 249 235 233 234 232 233 233 235 237 237 236 237
221 223 224 225 224 223 222 221 222 224 223 224 228 226 222 222 222 226 229 229 233 239 242 246 250 252 254 260 260 253 247 248 256 258 255 250 250 254 257 258 258 260 265 267 266 263 263 265 266 267 269 270 274 279 281 283 289 296 300 300 303 304 300 296 294 290 290 289 284 279 271 259 252 255 254 240 234 236 236 234 235 236 237 237 237 237
225 225 224 224 226 226 224 224 226 228 229 230 230 229 231 233 230 230 231 230 235 242 243 245 250 253 250 255 260 254 247 248 251 251 252 253 251 250 251 253 255 258 263 269 273 271 267 264 263 263 266 268 270 273 277 280 285 292 294 293 293 294 296 296 289 287 291 285 274 269 260 247 240 246 251 243 236 239 239 235 235 238 239 240 242 240
227 228 227 226 228 229 228 227 229 231 231 231 231 229 230 234 235 235 234 233 237 243 246 248 253 257 256 257 262 261 249 242 242 246 251 254 255 254 254 254 253 255 259 262 267 271 270 268 266 264 264 267 269 272 276 280 283 287 287 287 285 285 289 290 285 287 284 269 267 266 246 228 227 241 246 241 240 244 243 239 238 239 239 241 241 239
230 231 230 229 228 229 229 229 231 232 232 232 232 231 229 231 234 236 237 238 240 242 246 249 252 257 257 255 254 250 243 239 242 248 254 254 255 258 259 258 258 257 257 259 261 263 266 268 268 265 261 262 265 269 273 276 278 280 282 283 282 282 284 282 281 282 266 257 275 287 249 218 213 231 245 246 246 248 246 242 239 238 239 241 240 240
235 235 232 230 228 228 228 229 231 233 234 233 233 235 236 235 237 238 238 239 241 244 247 249 250 254 254 250 247 245 241 241 243 248 252 252 253 256 260 262 262 262 262 263 265 265 266 268 268 265 262 260 262 265 269 273 275 278 281 284 285 284 282 277 276 278 264 257 270 280 268 251 244 246 252 248 242 244 244 242 241 240 242 244 242 242
233 232 232 231 231 231 230 231 233 235 236 236 235 237 239 239 242 243 239 238 242 247 249 248 246 247 247 243 240 240 238 238 241 243 244 246 249 252 256 260 262 264 266 267 267 266 264 263 263 262 260 259 260 262 267 272 275 279 284 290 290 286 282 276 273 273 267 258 259 262 267 276 277 269 261 249 240 239 237 236 241 244 243 243 244 245
231 233 235 236 236 237 236 235 236 237 238 239 240 240 239 240 244 247 244 241 243 245 245 244 243 241 240 239 237 237 237 235 236 237 237 240 244 245 249 254 256 259 262 264 265 263 260 258 257 258 258 259 260 262 266 272 276 279 284 293 294 287 278 272 269 268 265 258 256 254 253 262 271 270 266 258 250 245 234 230 238 246 243 240 242 243
235 237 240 241 240 239 240 239 239 239 240 242 243 243 242 242 244 247 247 243 241 242 244 245 247 246 242 240 238 237 236 234 233 234 235 238 241 242 243 247 250 252 255 259 261 260 259 257 256 255 257 259 261 263 265 271 277 279 281 285 288 282 273 268 267 269 269 262 256 251 245 247 255 255 251 248 245 242 236 230 233 240 243 242 243 242
240 241 242 244 243 242 241 241 241 242 242 244 244 243 243 244 244 247 250 248 242 241 244 246 248 249 247 243 239 237 236 235 234 234 235 238 241 242 242 243 246 249 250 253 257 258 257 257 257 257 256 258 262 265 266 268 271 275 274 272 270 266 262 266 272 275 277 272 264 257 248 244 249 246 239 233 232 236 240 238 235 237 241 244 247 248
246 247 247 246 244 244 244 244 244 244 244 246 246 244 243 243 245 247 251 251 246 243 244 246 247 248 248 245 242 239 238 237 236 236 237 238 240 243 244 244 246 248 248 249 253 256 258 258 259 260 260 259 262 264 265 266 267 269 269 266 264 262 261 265 272 276 276 273 270 267 258 250 254 256 244 232 230 234 237 235 233 233 234 237 244 248
247 247 247 246 244 242 241 243 244 244 245 245 246 246 244 244 246 248 250 252 250 245 244 247 248 247 247 247 245 241 238 238 237 237 237 237 239 242 244 246 248 251 252 251 252 255 259 261 262 263 263 263 264 264 265 268 268 269 269 266 264 264 265 268 270 272 273 273 271 271 269 265 263 264 261 251 237 231 227 222 222 228 232 237 243 247
241 240 239 240 241 239 237 238 241 242 243 243 243 245 246 245 246 247 250 253 253 247 243 244 246 245 245 245 243 238 235 235 234 234 235 236 236 239 242 245 248 251 254 256 256 256 258 261 264 266 267 267 267 266 266 268 268 269 270 269 267 266 266 269 271 271 271 272 272 272 272 271 269 265 263 258 247 241 239 237 236 240 244 246 250 252
239 238 237 237 241 242 238 236 237 238 239 240 241 242 243 244 244 246 248 250 251 248 242 241 243 243 242 242 240 235 231 232 232 232 233 235 236 238 240 243 247 250 253 257 259 260 261 261 264 267 269 269 267 265 266 268 269 269 269 270 270 269 267 268 270 272 271 270 272 273 272 271 271 269 265 258 251 251 254 254 253 253 253 254 254 253
238 238 237 236 242 247 242 235 234 235 237 238 237 237 239 242 243 243 243 244 246 244 240 238 239 240 240 240 238 233 229 230 232 233 234 235 237 239 241 244 247 251 254 257 259 261 262 262 262 263 266 267 267 266 267 268 268 267 267 268 270 270 269 268 268 269 271 270 270 272 272 271 271 270 269 264 259 257 257 257 257 255 254 253 250 246
238 239 237 236 238 244 242 235 232 233 236 237 235 235 238 240 240 240 240 240 242 243 241 239 238 239 239 239 236 233 231 231 232 235 236 236 237 239 242 244 246 248 253 257 258 259 260 261 260 261 264 267 269 270 269 269 267 265 264 266 268 270 271 270 268 267 269 271 271 270 270 269 268 267 266 264 262 261 260 259 258 257 256 253 249 246
232 231 230 230 235 239 238 234 231 230 233 235 234 234 236 234 232 233 235 236 238 239 240 239 237 238 240 238 236 235 235 234 235 236 237 237 237 239 242 245 247 247 249 253 255 256 258 260 261 262 264 267 269 270 271 269 267 264 263 264 266 268 270 271 270 268 266 268 269 268 266 265 264 264 263 261 259 258 258 258 257 257 256 255 253 251
219 215 214 216 223 229 229 227 225 223 225 228 228 226 223 220 218 221 226 230 233 233 236 237 236 236 236 236 237 236 236 237 237 237 237 238 239 240 243 246 249 249 250 253 254 256 258 261 262 263 265 266 268 271 272 271 268 265 264 265 266 268 269 270 271 269 264 261 259 259 259 259 260 261 260 260 258 256 255 255 255 256 256 257 257 256
221 225 231 225 224 226 226 224 222 218 218 221 219 213 208 207 209 213 218 225 228 230 233 234 233 232 232 232 233 233 234 236 238 238 239 240 242 245 248 251 254 256 257 257 256 257 260 262 264 267 269 269 269 269 271 272 270 267 265 265 266 267 268 269 270 269 266 263 259 257 257 258 260 260 259 258 257 256 255 255 255 257 257 258 258 257
231 237 243 236 229 229 229 228 225 221 218 219 219 216 210 208 211 216 220 223 226 228 230 231 228 227 228 228 226 225 226 228 231 233 236 239 242 247 252 256 258 259 259 258 257 258 260 263 267 270 271 270 268 263 260 261 264 267 269 270 269 269 270 270 268 266 265 264 263 262 262 263 264 265 264 262 260 259 258 257 257 258 259 259 260 259
236 235 234 228 224 225 226 226 225 223 221 222 225 227 220 214 215 221 225 226 226 226 228 230 231 231 231 231 230 228 226 226 228 230 232 235 237 239 244 250 253 253 253 254 255 255 257 260 264 268 268 268 267 264 261 262 265 270 271 271 269 270 271 271 268 266 265 264 263 264 265 264 264 265 267 267 266 265 265 264 262 262 261 261 262 261
225 223 219 215 214 217 221 222 222 222 222 225 228 230 225 216 212 215 221 225 226 226 227 230 233 236 236 236 236 235 233 232 233 234 235 236 237 239 242 247 250 251 251 252 253 254 255 256 259 260 260 259 259 259 260 263 267 270 271 270 270 272 273 271 269 268 268 267 266 264 263 262 261 261 260 260 260 261 263 264 264 264 263 263 263 262
207 207 205 204 205 210 216 218 215 213 216 222 224 224 221 214 211 214 221 226 228 229 229 230 233 236 238 238 238 238 238 237 236 236 237 237 238 241 243 245 248 250 252 253 253 253 251 251 251 251 250 249 248 249 251 254 257 261 264 265 265 267 269 270 269 268 268 266 264 261 258 256 255 254 253 253 253 254 256 258 259 260 261 263 264 265
200 200 199 200 201 203 207 208 204 202 205 208 207 204 203 202 204 210 216 221 226 230 232 233 236 240 242 243 244 244 244 244 244 244 245 245 246 247 248 249 251 254 256 257 257 256 253 250 248 247 246 246 247 249 253 256 258 259 261 260 260 261 263 266 268 268 266 265 263 260 257 254 252 252 252 253 254 255 256 257 256 256 256 258 261 264
Height
5744 5746 5749 5752 5755 5757 5759 5762 5765 5766 5766 5766 5767 5769 5772 5775 5779 5781 5782 5782 5783 5783 5782 5783 5785 5787 5788 5789 5788 5788 5787 5786 5786 5789 5789 5790 5790 5790 5790 5789 5789 5789 5789 5790 5789 5791 5791 5790 5790 5790 5790 5791 5793 5793 5793 5793 5795 5797 5797 5795 5793 5793 5794 5795 5796 5795 5794 5793 5793 5795 5795 5795 5796 5797 5799 5799 5800 5801 5803 5804 5805 5806 5808 5809 5810 5811
5741 5744 5748 5751 5754 5755 5757 5759 5762 5762 5763 5763 5765 5767 5770 5773 5777 5780 5782 5781 5781 5781 5780 5780 5781 5784 5785 5787 5787 5787 5786 5784 5783 5785 5786 5786 5787 5788 5787 5787 5786 5787 5787 5786 5786 5787 5788 5787 5788 5789 5789 5789 5791 5791 5792 5793 5792 5791 5793 5794 5793 5792 5792 5792 5793 5793 5792 5791 5792 5793 5794 5795 5796 5797 5798 5797 5798 5799 5801 5803 5803 5804 5805 5807 5808 5809
5739 5743 5747 5750 5752 5753 5754 5756 5758 5759 5761 5762 5764 5766 5768 5771 5774 5777 5779 5779 5778 5779 5778 5776 5777 5781 5784 5784 5785 5785 5784 5782 5780 5781 5782 5783 5783 5784 5784 5785 5784 5785 5785 5784 5783 5784 5785 5785 5786 5787 5788 5787 5788 5789 5790 5791 5790 5788 5790 5793 5794 5793 5792 5791 5791 5791 5790 5790 5790 5790 5791 5793 5794 5796 5796 5796 5797 5798 5800 5801 5802 5803 5804 5805 5806 5808
5738 5743 5746 5747 5749 5750 5751 5754 5756 5757 5758 5760 5762 5764 5766 5769 5771 5774 5776 5777 5777 5777 5775 5773 5774 5777 5781 5782 5782 5783 5782 5781 5779 5778 5778 5778 5779 5781 5782 5782 5783 5783 5783 5781 5781 5782 5782 5783 5784 5785 5786 5786 5786 5787 5788 5789 5790 5789 5790 5792 5793 5793 5792 5791 5790 5789 5789 5789 5788 5788 5789 5791 5792 5794 5795 5796 5796 5798 5799 5801 5802 5802 5803 5804 5805 5806
5737 5740 5742 5743 5744 5746 5749 5751 5754 5755 5755 5757 5760 5763 5764 5765 5768 5772 5774 5775 5775 5773 5772 5772 5771 5773 5777 5779 5779 5780 5781 5780 5779 5777 5776 5774 5775 5777 5778 5780 5780 5781 5781 5779 5779 5779 5780 5781 5782 5783 5784 5783 5783 5785 5787 5789 5789 5789 5789 5790 5791 5791 5790 5789 5789 5788 5787 5788 5787 5788 5789 5790 5791 5792 5794 5795 5796 5797 5798 5800 5801 5801 5802 5803 5804 5805
5735 5736 5738 5739 5741 5743 5745 5748 5751 5753 5753 5754 5757 5761 5762 5764 5766 5768 5769 5769 5769 5770 5771 5771 5770 5770 5774 5776 5777 5778 5778 5778 5778 5777 5776 5773 5772 5772 5775 5777 5778 5777 5777 5777 5776 5776 5778 5779 5780 5781 5782 5781 5781 5782 5785 5787 5788 5788 5788 5788 5789 5788 5788 5788 5787 5786 5786 5786 5786 5787 5788 5789 5790 5791 5793 5794 5795 5796 5797 5798 5800 5800 5801 5802 5803 5805
5732 5733 5735 5736 5739 5741 5743 5745 5748 5750 5750 5752 5756 5760 5761 5762 5764 5766 5768 5768 5768 5768 5769 5767 5767 5769 5772 5774 5775 5775 5775 5775 5775 5776 5776 5774 5771 5770 5772 5773 5773 5773 5773 5774 5774 5774 5776 5777 5778 5779 5779 5779 5779 5780 5783 5785 5786 5787 5787 5787 5787 5786 5785 5785 5785 5784 5784 5784 5784 5784 5785 5787 5788 5790 5791 5792 5793 5795 5796 5797 5799 5800 5800 5801 5802 5804
5729 5730 5732 5734 5736 5738 5740 5742 5744 5745 5748 5751 5755 5758 5759 5760 5763 5766 5767 5767 5766 5766 5766 5765 5765 5767 5769 5772 5772 5772 5773 5773 5772 5772 5773 5773 5771 5769 5770 5770 5770 5770 5769 5770 5772 5773 5775 5777 5777 5777 5777 5777 5777 5778 5781 5783 5783 5784 5785 5786 5785 5784 5783 5783 5783 5782 5782 5781 5781 5781 5782 5784 5785 5787 5789 5790 5791 5793 5795 5796 5797 5798 5799 5799 5800 5802
5728 5729 5730 5732 5733 5735 5736 5739 5740 5742 5745 5749 5753 5755 5757 5758 5759 5761 5761 5761 5762 5762 5762 5763 5765 5766 5767 5769 5770 5770 5770 5770 5769 5768 5769 5770 5769 5767 5768 5768 5769 5769 5768 5768 5770 5772 5774 5776 5776 5776 5776 5776 5775 5776 5779 5781 5781 5781 5782 5783 5783 5782 5782 5781 5781 5780 5780 5779 5779 5779 5780 5781 5782 5784 5786 5788 5789 5791 5792 5794 5795 5796 5797 5797 5798 5799
5724 5726 5728 5729 5731 5732 5733 5736 5738 5740 5743 5747 5750 5751 5751 5752 5753 5755 5756 5757 5758 5758 5759 5762 5765 5765 5765 5767 5767 5767 5767 5769 5768 5766 5766 5768 5767 5766 5766 5766 5768 5769 5768 5768 5769 5772 5773 5774 5774 5775 5775 5775 5775 5775 5777 5778 5778 5778 5779 5781 5781 5780 5780 5780 5778 5777 5777 5777 5777 5777 5777 5778 5780 5781 5783 5785 5787 5788 5790 5791 5792 5793 5794 5795 5796 5798
5720 5723 5725 5726 5727 5728 5730 5734 5736 5737 5740 5744 5746 5746 5746 5747 5750 5752 5753 5754 5755 5755 5757 5761 5763 5762 5762 5764 5764 5763 5764 5766 5767 5766 5766 5766 5765 5764 5764 5765 5767 5768 5768 5767 5768 5769 5770 5771 5772 5772 5773 5773 5774 5774 5774 5776 5776 5775 5776 5778 5779 5778 5777 5777 5776 5774 5774 5774 5775 5775 5775 5776 5777 5778 5780 5782 5784 5786 5787 5789 5790 5791 5792 5794 5795 5796
5716 5718 5720 5722 5723 5725 5729 5732 5733 5734 5737 5741 5742 5742 5744 5746 5747 5749 5751 5751 5750 5752 5757 5759 5760 5759 5759 5760 5760 5760 5762 5764 5765 5765 5765 5765 5765 5764 5763 5764 5766 5766 5765 5765 5765 5766 5766 5767 5768 5769 5770 5771 5772 5772 5773 5773 5772 5772 5774 5776 5776 5775 5774 5773 5772 5771 5771 5771 5771 5772 5773 5774 5775 5776 5778 5780 5782 5784 5785 5786 5788 5789 5790 5792 5793 5794
5713 5715 5717 5720 5720 5722 5726 5729 5730 5732 5734 5736 5739 5740 5741 5742 5743 5746 5748 5749 5749 5751 5755 5757 5756 5756 5756 5756 5757 5758 5760 5761 5762 5763 5763 5763 5763 5764 5763 5764 5765 5763 5761 5761 5761 5761 5760 5760 5761 5762 5762 5764 5766 5768 5768 5769 5768 5768 5771 5772 5773 5771 5770 5769 5769 5768 5768 5768 5768 5769 5769 5770 5772 5773 5775 5777 5779 5781 5783 5784 5785 5787 5788 5789 5791 5792
5712 5712 5714 5717 5717 5719 5724 5726 5728 5730 5731 5733 5736 5738 5739 5740 5741 5743 5746 5747 5748 5750 5752 5753 5753 5753 5753 5753 5754 5755 5756 5757 5758 5760 5761 5760 5761 5761 5761 5761 5762 5760 5758 5756 5755 5756 5757 5757 5757 5757 5757 5757 5759 5760 5760 5761 5761 5762 5765 5767 5767 5766 5766 5766 5766 5766 5767 5768 5768 5768 5769 5768 5769 5771 5773 5775 5777 5779 5780 5782 5783 5784 5785 5787 5789 5790
5709 5710 5711 5714 5716 5719 5723 5725 5726 5728 5729 5731 5734 5735 5737 5738 5739 5741 5743 5744 5746 5747 5748 5749 5750 5750 5751 5751 5751 5752 5753 5754 5755 5757 5758 5758 5758 5758 5758 5758 5759 5758 5756 5753 5752 5754 5756 5756 5756 5756 5756 5756 5757 5757 5756 5756 5755 5755 5758 5760 5761 5762 5763 5764 5764 5767 5768 5769 5769 5769 5770 5769 5768 5769 5771 5773 5775 5777 5778 5780 5781 5782 5783 5785 5787 5788
5707 5709 5711 5714 5716 5718 5721 5722 5723 5725 5726 5728 5730 5732 5734 5736 5738 5740 5741 5741 5742 5744 5745 5746 5747 5747 5748 5749 5749 5750 5751 5751 5753 5754 5755 5755 5755 5756 5756 5756 5755 5754 5753 5752 5752 5754 5755 5755 5753 5753 5753 5754 5755 5756 5756 5755 5755 5755 5755 5757 5759 5760 5761 5762 5765 5767 5768 5769 5769 5769 5770 5769 5767 5769 5771 5772 5774 5776 5777 5779 5780 5781 5782 5784 5785 5786
5705 5708 5710 5713 5714 5714 5717 5720 5721 5722 5724 5725 5726 5729 5732 5734 5735 5737 5738 5739 5740 5740 5742 5744 5745 5745 5746 5746 5746 5747 5749 5749 5751 5751 5752 5752 5753 5753 5753 5753 5752 5751 5751 5750 5751 5753 5753 5752 5750 5748 5749 5750 5752 5754 5753 5754 5756 5758 5757 5757 5757 5757 5758 5762 5765 5767 5766 5767 5768 5769 5770 5769 5768 5769 5771 5772 5773 5775 5776 5777 5778 5780 5781 5782 5783 5784
5704 5706 5708 5710 5712 5712 5714 5717 5718 5720 5723 5723 5724 5727 5731 5732 5732 5733 5735 5737 5737 5738 5740 5741 5742 5743 5743 5743 5744 5745 5746 5747 5748 5749 5749 5749 5750 5750 5750 5749 5748 5748 5747 5747 5748 5749 5749 5748 5746 5745 5745 5746 5747 5749 5750 5751 5754 5756 5756 5756 5755 5755 5757 5759 5761 5762 5762 5764 5765 5767 5769 5769 5769 5769 5770 5770 5771 5773 5774 5775 5777 5778 5780 5781 5782 5783
5702 5704 5705 5707 5710 5712 5713 5715 5716 5718 5720 5721 5723 5726 5729 5730 5730 5731 5732 5733 5734 5736 5737 5739 5740 5739 5739 5740 5742 5743 5744 5744 5745 5746 5746 5746 5746 5746 5746 5745 5744 5744 5743 5743 5743 5744 5745 5744 5743 5742 5742 5742 5742 5745 5746 5747 5750 5751 5752 5752 5752 5753 5755 5755 5756 5757 5759 5761 5763 5765 5767 5768 5768 5769 5769 5769 5768 5769 5772 5774 5775 5777 5778 5780 5781 5781
5698 5701 5703 5705 5709 5711 5711 5712 5713 5716 5718 5720 5721 5722 5725 5727 5728 5730 5731 5731 5733 5734 5735 5737 5737 5736 5736 5737 5739 5740 5742 5742 5743 5744 5744 5743 5743 5743 5743 5742 5742 5741 5741 5740 5740 5741 5742 5742 5741 5740 5740 5739 5740 5742 5742 5743 5745 5746 5747 5748 5748 5750 5752 5752 5753 5756 5758 5759 5761 5763 5765 5766 5766 5766 5767 5767 5767 5767 5769 5771 5773 5775 5776 5778 5778 5779
5694 5696 5700 5703 5706 5708 5708 5709 5712 5715 5717 5719 5719 5720 5722 5725 5726 5727 5728 5729 5731 5732 5733 5734 5734 5733 5734 5735 5736 5738 5739 5740 5741 5742 5742 5741 5740 5740 5740 5740 5740 5739 5739 5740 5740 5740 5740 5741 5740 5739 5739 5739 5739 5739 5740 5742 5745 5744 5744 5745 5746 5747 5749 5750 5753 5755 5757 5758 5759 5761 5763 5764 5764 5763 5764 5765 5766 5766 5767 5769 5770 5771 5773 5774 5775 5776
5691 5693 5698 5701 5703 5705 5706 5709 5711 5713 5715 5717 5718 5720 5721 5723 5724 5725 5726 5727 5728 5729 5730 5730 5731 5731 5732 5734 5734 5735 5737 5738 5738 5739 5739 5739 5738 5737 5737 5737 5737 5737 5738 5739 5739 5738 5739 5739 5739 5739 5738 5738 5738 5738 5738 5740 5743 5743 5742 5742 5743 5745 5747 5748 5750 5753 5754 5756 5757 5759 5760 5761 5762 5761 5761 5762 5763 5764 5765 5766 5767 5768 5769 5770 5771 5772
5687 5690 5694 5698 5700 5702 5704 5707 5710 5712 5713 5714 5716 5718 5720 5721 5721 5722 5723 5725 5726 5726 5727 5727 5728 5729 5730 5732 5732 5733 5734 5735 5736 5736 5736 5736 5736 5735 5735 5736 5735 5736 5736 5737 5737 5737 5737 5738 5738 5737 5737 5737 5737 5737 5737 5739 5741 5741 5740 5741 5741 5743 5745 5746 5747 5749 5751 5753 5755 5756 5757 5758 5759 5759 5759 5760 5760 5761 5762 5763 5764 5765 5766 5767 5768 5769
5685 5687 5690 5693 5696 5699 5700 5703 5707 5709 5710 5712 5713 5715 5716 5717 5718 5719 5721 5722 5722 5723 5724 5725 5725 5726 5728 5730 5731 5732 5733 5733 5734 5734 5734 5734 5734 5734 5734 5735 5734 5734 5734 5735 5735 5735 5735 5735 5736 5736 5736 5736 5736 5736 5736 5739 5740 5739 5739 5740 5741 5743 5744 5745 5745 5746 5748 5750 5752 5754 5754 5755 5756 5757 5757 5758 5759 5759 5760 5761 5762 5763 5763 5765 5766 5768
5683 5684 5686 5689 5693 5696 5698 5700 5702 5704 5705 5706 5707 5708 5710 5712 5714 5715 5716 5717 5719 5719 5720 5722 5722 5722 5725 5728 5729 5730 5731 5731 5732 5733 5732 5732 5732 5733 5733 5733 5733 5733 5733 5733 5733 5733 5733 5733 5734 5735 5735 5735 5735 5735 5735 5737 5738 5738 5739 5740 5741 5742 5743 5743 5744 5744 5745 5747 5749 5751 5751 5752 5753 5754 5755 5756 5757 5757 5758 5759 5760 5761 5762 5764 5765 5766
5681 5681 5682 5685 5689 5692 5694 5696 5697 5698 5700 5701 5702 5703 5705 5707 5709 5710 5712 5713 5714 5715 5716 5718 5719 5720 5721 5724 5726 5728 5728 5729 5730 5730 5730 5730 5730 5731 5731 5731 5731 5731 5732 5732 5731 5731 5731 5731 5732 5733 5734 5735 5735 5735 5735 5736 5736 5736 5737 5738 5739 5740 5741 5741 5742 5743 5743 5744 5745 5747 5748 5749 5750 5751 5751 5753 5754 5754 5755 5757 5759 5759 5760 5762 5763 5764
5679 5680 5681 5683 5686 5688 5690 5692 5693 5695 5696 5697 5699 5701 5701 5704 5706 5708 5709 5710 5710 5711 5713 5714 5716 5718 5719 5721 5724 5726 5726 5726 5727 5727 5728 5727 5728 5728 5729 5729 5729 5730 5730 5730 5730 5730 5730 5730 5730 5731 5733 5734 5734 5735 5735 5736 5736 5735 5735 5736 5737 5738 5738 5738 5740 5742 5742 5742 5742 5743 5744 5745 5747 5748 5748 5749 5750 5752 5753 5755 5756 5757 5758 5760 5761 5761
5677 5678 5680 5681 5683 5685 5687 5689 5691 5692 5694 5695 5698 5698 5699 5702 5704 5706 5707 5707 5708 5709 5711 5712 5714 5716 5718 5720 5722 5723 5724 5724 5725 5725 5725 5725 5726 5726 5726 5727 5728 5728 5728 5728 5729 5729 5728 5728 5728 5729 5731 5732 5733 5734 5734 5735 5736 5735 5734 5735 5735 5736 5736 5736 5739 5740 5740 5740 5740 5740 5741 5742 5743 5744 5745 5746 5747 5749 5750 5752 5753 5755 5756 5757 5758 5759
5673 5675 5677 5679 5681 5683 5685 5687 5688 5689 5691 5693 5696 5697 5698 5700 5702 5703 5705 5705 5706 5708 5709 5711 5713 5715 5716 5718 5719 5720 5721 5722 5723 5723 5723 5723 5724 5724 5724 5725 5726 5726 5726 5726 5727 5727 5727 5727 5727 5728 5730 5731 5732 5732 5733 5734 5735 5734 5733 5733 5733 5734 5734 5735 5737 5737 5738 5738 5737 5736 5737 5738 5739 5741 5742 5743 5744 5746 5747 5749 5751 5752 5753 5754 5755 5756
5670 5672 5673 5675 5678 5679 5682 5683 5684 5686 5688 5690 5693 5694 5696 5697 5699 5700 5701 5703 5705 5706 5707 5709 5711 5713 5714 5716 5716 5718 5720 5721 5721 5722 5721 5721 5722 5722 5723 5723 5724 5724 5724 5725 5725 5726 5726 5726 5727 5727 5728 5729 5730 5731 5731 5733 5733 5733 5733 5732 5732 5733 5733 5734 5734 5735 5735 5735 5734 5733 5734 5736 5738 5739 5740 5741 5742 5743 5744 5746 5748 5749 5750 5751 5752 5753
5667 5669 5670 5672 5674 5675 5678 5680 5681 5682 5684 5686 5689 5691 5692 5694 5695 5697 5698 5700 5702 5704 5706 5707 5709 5710 5712 5714 5715 5717 5718 5718 5719 5720 5719 5719 5720 5720 5720 5721 5722 5722 5723 5723 5724 5724 5725 5726 5726 5726 5727 5727 5728 5729 5729 5730 5731 5731 5731 5731 5731 5731 5732 5732 5732 5732 5732 5731 5730 5730 5731 5733 5735 5737 5739 5740 5740 5741 5742 5744 5745 5746 5747 5748 5748 5749
5664 5665 5667 5669 5670 5672 5674 5676 5677 5679 5681 5683 5686 5687 5689 5690 5692 5694 5695 5697 5700 5702 5704 5705 5706 5708 5710 5712 5713 5714 5715 5716 5717 5717 5717 5717 5717 5717 5718 5718 5720 5721 5721 5722 5722 5723 5724 5724 5724 5725 5725 5726 5726 5727 5727 5728 5729 5729 5730 5730 5730 5730 5731 5731 5730 5730 5731 5730 5729 5730 5731 5731 5732 5734 5737 5738 5739 5739 5740 5741 5742 5743 5744 5744 5745 5746
5661 5662 5663 5665 5667 5668 5670 5672 5674 5675 5677 5679 5682 5684 5686 5687 5689 5692 5693 5694 5697 5698 5700 5702 5704 5705 5707 5709 5710 5711 5712 5713 5714 5715 5715 5715 5715 5715 5715 5716 5717 5718 5719 5720 5720 5721 5722 5723 5723 5723 5724 5724 5725 5725 5726 5726 5726 5727 5727 5728 5728 5728 5729 5729 5729 5729 5730 5729 5729 5730 5731 5731 5731 5732 5734 5735 5736 5737 5738 5738 5739 5740 5741 5742 5743 5744
5658 5659 5660 5662 5663 5664 5666 5669 5671 5672 5673 5675 5679 5681 5683 5685 5687 5689 5690 5692 5694 5695 5697 5698 5700 5702 5704 5705 5706 5708 5709 5710 5710 5712 5712 5713 5713 5714 5714 5713 5714 5715 5716 5717 5718 5719 5720 5721 5721 5722 5722 5722 5723 5723 5724 5724 5724 5725 5725 5725 5726 5726 5726 5727 5727 5727 5728 5728 5728 5729 5729 5730 5731 5731 5732 5733 5734 5735 5736 5736 5736 5737 5739 5740 5741 5742
5654 5656 5657 5659 5660 5661 5663 5665 5667 5668 5670 5672 5675 5678 5680 5682 5684 5685 5687 5689 5691 5692 5694 5696 5697 5699 5700 5701 5703 5704 5705 5706 5707 5708 5709 5710 5711 5711 5712 5712 5712 5713 5713 5714 5715 5716 5717 5719 5720 5720 5720 5720 5721 5722 5722 5722 5722 5723 5723 5723 5723 5724 5724 5725 5725 5725 5726 5726 5727 5728 5728 5729 5729 5730 5730 5731 5732 5733 5734 5735 5735 5735 5736 5737 5738 5740
5651 5653 5654 5656 5657 5658 5660 5661 5663 5665 5667 5668 5671 5674 5676 5678 5680 5682 5684 5686 5688 5689 5691 5693 5694 5696 5697 5698 5699 5701 5702 5703 5704 5705 5707 5708 5708 5709 5710 5710 5710 5711 5711 5712 5713 5714 5715 5716 5717 5718 5718 5718 5719 5720 5720 5720 5720 5720 5721 5721 5721 5722 5723 5723 5724 5724 5724 5725 5725 5726 5727 5728 5728 5728 5728 5729 5729 5730 5731 5733 5733 5733 5734 5735 5736 5737
5648 5649 5651 5653 5654 5655 5656 5658 5660 5662 5663 5665 5667 5670 5672 5674 5677 5679 5681 5682 5684 5686 5687 5689 5691 5692 5694 5695 5696 5698 5699 5700 5702 5703 5704 5705 5706 5706 5707 5708 5708 5709 5710 5710 5711 5711 5712 5713 5714 5715 5716 5717 5717 5717 5718 5718 5719 5718 5719 5720 5720 5720 5721 5722 5722 5722 5722 5723 5724 5725 5725 5726 5727 5726 5726 5727 5728 5728 5729 5730 5731 5732 5733 5733 5733 5734
5644 5646 5648 5649 5650 5651 5653 5655 5656 5658 5660 5662 5664 5666 5669 5671 5673 5675 5677 5679 5681 5683 5684 5685 5686 5689 5690 5692 5693 5694 5696 5698 5699 5701 5702 5703 5703 5704 5704 5705 5706 5706 5707 5708 5709 5709 5709 5710 5711 5712 5714 5715 5715 5715 5715 5715 5716 5716 5716 5717 5718 5719 5719 5720 5721 5721 5721 5721 5722 5723 5724 5724 5724 5724 5724 5725 5726 5727 5727 5728 5729 5730 5731 5731 5730 5731
5641 5642 5644 5645 5646 5647 5649 5651 5653 5655 5658 5659 5660 5662 5665 5667 5669 5671 5673 5675 5677 5679 5680 5681 5683 5685 5687 5688 5690 5691 5693 5694 5696 5698 5699 5699 5700 5701 5701 5702 5703 5704 5705 5705 5706 5707 5707 5707 5708 5709 5710 5712 5712 5712 5712 5713 5713 5713 5714 5715 5716 5716 5717 5718 5718 5719 5719 5719 5720 5720 5721 5722 5722 5723 5723 5723 5724 5724 5725 5726 5726 5727 5727 5728 5728 5728
5637 5639 5640 5641 5642 5643 5645 5647 5650 5652 5654 5655 5657 5659 5661 5663 5665 5667 5668 5671 5673 5675 5677 5678 5679 5680 5682 5684 5686 5688 5689 5691 5692 5694 5695 5695 5696 5697 5698 5699 5700 5701 5701 5702 5703 5704 5704 5705 5705 5705 5707 5708 5709 5709 5710 5710 5710 5710 5711 5711 5712 5713 5714 5714 5715 5716 5717 5717 5717 5718 5718 5719 5720 5721 5721 5722 5722 5722 5723 5723 5724 5724 5725 5725 5726 5726
5634 5635 5637 5638 5639 5641 5642 5644 5647 5649 5651 5652 5655 5657 5658 5660 5662 5663 5665 5667 5669 5670 5672 5673 5674 5676 5678 5680 5681 5683 5685 5686 5688 5690 5691 5692 5693 5694 5695 5696 5697 5698 5698 5699 5700 5701 5701 5702 5702 5702 5703 5704 5705 5706 5707 5707 5707 5708 5708 5708 5709 5710 5710 5711 5712 5713 5714 5714 5715 5715 5716 5716 5717 5718 5719 5720 5720 5720 5720 5721 5721 5722 5723 5723 5724 5724
5631 5632 5633 5635 5637 5638 5640 5641 5643 5645 5648 5650 5652 5654 5656 5657 5659 5660 5662 5663 5664 5666 5668 5669 5671 5672 5673 5675 5677 5679 5681 5682 5684 5686 5687 5688 5689 5690 5692 5693 5694 5695 5695 5696 5697 5698 5698 5698 5699 5699 5699 5699 5700 5701 5702 5703 5704 5704 5705 5705 5705 5706 5707 5708 5708 5709 5710 5711 5712 5712 5713 5713 5714 5715 5716 5716 5717 5717 5717 5718 5718 5719 5720 5720 5721 5722
5628 5629 5631 5633 5635 5636 5637 5638 5640 5643 5645 5647 5650 5651 5653 5655 5656 5658 5659 5660 5662 5663 5665 5666 5667 5669 5670 5671 5673 5674 5676 5678 5680 5682 5683 5684 5685 5687 5688 5689 5690 5692 5692 5692 5693 5694 5694 5694 5695 5696 5696 5696 5696 5697 5698 5699 5700 5701 5702 5702 5703 5703 5703 5704 5705 5706 5706 5707 5708 5709 5709 5710 5710 5711 5712 5713 5713 5714 5714 5714 5715 5715 5716 5717 5718 5718
5626 5627 5629 5631 5633 5634 5635 5636 5638 5641 5643 5646 5647 5649 5650 5652 5653 5654 5656 5658 5659 5660 5661 5663 5664 5666 5667 5668 5669 5671 5673 5674 5676 5678 5679 5680 5682 5683 5684 5685 5686 5688 5689 5689 5689 5690 5690 5690 5691 5692 5693 5693 5693 5693 5694 5695 5696 5697 5698 5699 5699 5700 5700 5701 5701 5703 5703 5704 5704 5705 5705 5706 5706 5707 5708 5709 5710 5710 5710 5711 5711 5712 5712 5713 5714 5715
5624 5625 5626 5629 5630 5631 5632 5634 5636 5639 5642 5644 5645 5647 5648 5649 5650 5651 5653 5655 5656 5658 5659 5660 5661 5663 5664 5665 5666 5668 5669 5671 5673 5674 5676 5677 5678 5679 5680 5681 5682 5683 5684 5685 5686 5686 5686 5686 5687 5688 5689 5690 5690 5690 5690 5690 5691 5693 5694 5695 5695 5696 5697 5698 5698 5699 5699 5700 5701 5701 5702 5702 5702 5703 5704 5705 5706 5706 5707 5707 5708 5708 5709 5709 5710 5711
5622 5623 5625 5627 5628 5629 5631 5633 5635 5637 5640 5642 5644 5645 5646 5647 5648 5649 5651 5653 5654 5655 5656 5657 5659 5660 5662 5663 5664 5665 5666 5668 5669 5671 5672 5673 5674 5675 5676 5677 5678 5679 5680 5681 5682 5682 5682 5682 5683 5684 5685 5686 5686 5687 5686 5686 5687 5688 5690 5691 5691 5692 5693 5694 5694 5695 5695 5696 5697 5697 5698 5698 5698 5699 5700 5701 5701 5702 5702 5703 5704 5704 5705 5705 5706 5706
5620 5622 5624 5625 5626 5628 5630 5632 5634 5636 5638 5640 5642 5643 5644 5645 5646 5647 5649 5650 5652 5653 5654 5655 5656 5658 5659 5660 5661 5662 5664 5665 5666 5668 5669 5670 5671 5672 5673 5674 5675 5676 5676 5677 5678 5678 5679 5679 5679 5680 5681 5681 5682 5683 5683 5683 5683 5684 5685 5687 5687 5688 5688 5689 5690 5690 5691 5691 5692 5693 5693 5693 5694 5694 5695 5696 5696 5697 5697 5698 5699 5699 5700 5700 5701 5702
5618 5620 5622 5623 5625 5626 5628 5630 5632 5634 5636 5639 5641 5642 5643 5643 5645 5646 5647 5648 5649 5651 5652 5653 5655 5656 5657 5657 5658 5660 5661 5662 5663 5665 5666 5667 5668 5669 5670 5671 5671 5672 5673 5673 5674 5675 5675 5676 5676 5677 5677 5678 5678 5679 5679 5679 5679 5679 5680 5681 5682 5683 5683 5683 5684 5685 5686 5687 5687 5688 5688 5689 5689 5690 5690 5691 5691 5692 5692 5692 5693 5694 5694 5695 5696 5697
5616 5618 5620 5622 5623 5625 5627 5629 5631 5632 5635 5637 5638 5640 5641 5642 5643 5645 5646 5647 5648 5649 5651 5652 5653 5654 5655 5656 5657 5658 5659 5660 5661 5662 5662 5663 5665 5666 5667 5668 5668 5669 5670 5670 5671 5671 5672 5672 5673 5673 5674 5674 5675 5675 5675 5675 5675 5675 5676 5676 5677 5677 5678 5678 5679 5680 5681 5682 5683 5684 5684 5684 5685 5685 5686 5687 5687 5687 5688 5688 5688 5688 5689 5689 5690 5691
5615 5617 5619 5620 5622 5624 5625 5627 5629 5630 5632 5634 5636 5637 5639 5640 5642 5643 5644 5646 5647 5648 5649 5651 5652 5653 5653 5654 5655 5656 5657 5657 5658 5659 5659 5660 5661 5662 5663 5664 5665 5665 5666 5667 5667 5668 5668 5669 5669 5670 5670 5671 5672 5672 5672 5672 5672 5672 5673 5673 5674 5673 5673 5674 5675 5676 5677 5678 5679 5679 5680 5680 5680 5681 5681 5682 5683 5683 5683 5683 5684 5684 5684 5684 5685 5686
5614 5616 5618 5620 5621 5623 5625 5626 5627 5629 5630 5632 5634 5635 5637 5639 5640 5642 5643 5645 5646 5647 5648 5649 5650 5651 5652 5653 5654 5654 5655 5656 5656 5657 5657 5658 5658 5659 5660 5661 5661 5662 5662 5663 5663 5664 5664 5665 5665 5666 5667 5668 5668 5668 5668 5669 5669 5669 5669 5670 5670 5670 5670 5670 5670 5671 5672 5673 5674 5675 5675 5675 5675 5676 5676 5677 5678 5678 5679 5679 5679 5680 5680 5680 5681 5681